Terug naar catalogus

ATLAS 5 CENTAUR DEB

ActiefHEO
NORAD 46665·DEBRIS·🇺🇸 United States

Gelanceerd Oct 17, 2018 vanaf Cape Canaveral Space Force Station

Loading…

Volgende Passages (komende 24 uur)

TLE

VersSource: Space-Track

Epoch: Sep 13, 2026, 10:49 UTC

1 46665U 18079CT  26256.45079409 -.00000143  00000-0  00000+0 0  9999
2 46665  13.5522  53.2453 4567584 267.1958  41.6598  1.71546439 37155

Volg ATLAS 5 CENTAUR DEB in realtime met AllMySat

Download on the App Store